Wind_Speed
35 34 34 34 33 33 33 34 35 34 35 35 35 35 36 36 36 36 36 37 37 37 38 39 40 40 41 42 43 44 44 45 45 45 45 45 46 46 46 48 48 48 49 48
35 35 34 34 33 33 34 34 34 35 35 34 34 35 35 35 35 35 36 36 36 37 37 38 39 40 40 42 42 43 43 44 45 45 45 45 45 46 46 46 47 47 47 47
36 35 34 33 33 33 33 33 33 33 33 33 33 33 34 34 34 34 34 34 35 36 36 36 37 38 38 39 40 41 42 43 44 44 44 44 45 46 45 45 45 44 45 46
36 35 34 34 34 33 33 33 34 34 34 33 32 33 33 33 33 33 33 33 33 34 35 35 35 36 38 38 38 39 40 41 42 43 43 42 43 44 44 44 44 44 46 46
35 35 34 33 33 33 33 33 33 33 33 33 33 33 32 32 31 32 33 33 33 33 33 33 34 35 36 37 38 37 38 39 40 41 41 41 42 43 43 43 43 44 45 46
34 34 34 33 33 32 32 32 32 33 33 33 33 33 32 32 32 32 32 32 33 33 33 33 33 33 34 35 36 36 37 38 38 39 39 40 40 41 42 43 43 43 44 44
34 34 33 33 33 32 32 32 32 32 32 33 33 33 32 32 32 32 32 32 32 32 32 32 32 32 32 33 34 35 35 36 37 37 38 38 38 39 40 41 41 42 42 43
34 34 34 34 33 32 33 33 33 33 33 33 34 34 34 34 33 33 33 33 32 32 32 32 32 32 31 31 32 32 33 34 35 35 36 37 38 38 39 40 40 41 41 42
34 34 34 34 34 34 34 34 34 34 34 34 34 34 34 33 33 33 33 33 33 32 31 31 31 31 30 31 31 32 32 33 34 34 35 36 36 36 37 38 39 40 40 41
35 35 35 34 34 34 34 34 34 34 34 34 34 34 33 33 33 33 33 32 32 32 31 31 31 32 30 30 30 31 32 33 33 34 35 36 35 35 36 36 36 37 39 39
35 35 34 34 34 34 34 33 33 33 34 34 34 34 33 33 33 33 32 32 31 31 31 30 30 31 31 30 30 30 31 32 33 33 33 34 34 34 34 34 35 36 37 38
34 34 34 33 33 33 33 33 33 33 33 33 34 33 32 32 32 32 31 30 30 29 29 29 28 28 28 28 29 29 30 31 32 32 33 34 34 34 34 34 34 35 36 37
34 33 33 33 33 32 32 33 33 33 33 33 33 32 31 31 30 30 29 29 28 28 28 27 27 26 26 27 28 28 29 30 31 32 32 33 33 34 33 34 34 35 35 36
33 33 33 33 32 32 32 33 33 33 33 33 33 32 31 30 29 29 28 28 27 27 26 25 25 25 25 25 25 26 27 28 29 30 31 32 32 33 33 34 34 34 34 35
33 33 33 32 32 32 32 32 32 32 32 32 31 31 30 30 29 28 27 26 26 26 25 25 24 24 24 24 25 25 26 26 27 28 29 30 31 32 32 33 33 34 33 34
32 33 32 32 31 32 32 32 31 31 31 31 31 31 30 29 28 27 26 26 25 25 24 24 24 24 23 23 23 24 25 25 26 27 28 29 29 30 31 31 32 32 32 32
31 31 31 31 31 31 31 31 31 31 31 31 30 30 29 29 28 27 26 26 25 24 24 24 24 23 23 22 22 22 22 24 25 26 27 28 29 29 30 30 30 30 31 31
31 31 31 31 31 31 31 30 30 30 30 30 30 29 29 28 27 26 26 25 25 24 24 23 23 22 22 21 21 21 22 22 23 24 25 27 27 28 29 30 30 30 30 30
31 31 31 31 30 30 30 30 30 30 30 30 29 28 28 27 26 25 25 24 23 23 23 22 22 22 21 21 21 20 20 21 21 22 23 24 25 25 27 27 28 28 29 29
31 31 31 31 30 30 30 29 30 30 30 29 28 27 27 26 25 24 23 23 22 22 22 22 22 21 21 21 21 21 20 20 20 21 22 23 24 25 26 26 27 28 28 28
31 31 30 30 30 30 30 29 29 29 29 28 27 26 26 25 24 23 22 22 22 22 21 21 21 21 21 20 20 20 20 20 20 21 21 22 23 24 25 26 27 28 28 28
31 31 30 30 30 30 30 30 29 29 28 28 27 26 25 24 23 23 22 21 21 21 21 21 21 20 20 20 20 20 19 19 20 20 21 21 22 23 24 25 26 28 28 29
31 31 30 30 30 30 30 30 29 28 28 27 26 25 24 23 23 22 22 21 21 21 20 20 20 20 21 20 20 20 20 20 20 20 20 21 22 23 23 24 25 26 27 28
31 31 31 31 31 30 30 30 29 28 27 26 25 24 23 22 22 22 21 21 20 20 20 20 20 20 20 20 20 20 20 20 20 20 21 21 22 23 24 25 25 25 26 26
31 31 31 31 31 31 30 29 28 27 26 25 24 24 23 22 21 21 21 20 20 19 18 18 18 18 18 18 18 18 18 18 19 19 20 21 21 22 23 23 24 24 24 25
32 32 32 32 31 30 29 28 27 26 25 24 24 23 23 22 21 21 20 19 19 18 17 17 16 16 16 15 15 16 16 16 17 18 18 19 19 20 21 22 23 23 24 24
32 32 32 31 30 29 28 27 26 25 25 24 23 23 23 22 22 21 20 20 19 18 18 17 16 16 16 15 15 15 15 16 16 17 17 18 18 18 19 20 21 22 22 23
Wind_Direction
305 303 300 297 297 297 295 294 293 293 292 290 287 286 285 284 283 283 280 277 274 272 269 266 263 261 258 255 254 254 253 250 250 251 250 249 249 248 247 246 246 246 247 247
305 302 300 298 297 297 295 294 293 293 292 292 290 288 287 286 286 284 282 280 276 274 272 269 266 263 261 258 257 256 254 251 250 250 250 249 249 248 248 247 247 247 246 246
306 303 300 298 298 298 297 295 294 294 293 293 291 289 289 288 286 285 285 282 279 277 275 271 268 265 262 260 259 258 255 253 251 250 250 249 249 248 247 246 246 245 245 244
308 304 301 301 299 298 297 296 296 296 294 294 293 291 290 290 289 287 286 285 282 280 278 275 271 267 263 261 260 259 256 254 252 251 250 249 248 247 247 246 246 245 244 244
310 307 304 302 300 298 297 297 297 297 295 294 293 292 290 289 290 289 288 286 284 282 280 278 274 270 266 262 260 259 256 254 253 252 251 249 248 246 245 245 245 245 246 246
311 309 308 306 303 301 299 298 298 297 296 295 293 292 289 288 288 288 288 288 286 284 281 279 276 273 269 263 259 258 256 254 252 252 251 249 248 246 245 245 245 245 244 244
310 309 308 307 305 302 300 301 300 299 298 297 294 293 292 290 290 289 290 289 288 285 282 279 276 274 270 265 261 258 256 254 253 251 249 247 247 246 245 245 245 244 244 244
310 309 309 307 305 303 301 299 299 298 297 297 296 294 293 292 292 291 290 290 289 286 283 280 278 276 272 266 260 256 255 254 252 251 248 247 248 247 246 246 245 244 245 244
309 309 308 307 305 303 301 300 298 298 298 297 297 296 294 293 292 292 291 289 289 288 285 282 279 277 273 267 261 257 256 255 254 253 250 249 248 248 247 247 246 245 244 244
308 308 307 307 306 304 303 301 300 299 299 298 298 297 295 293 293 292 291 290 289 287 285 283 279 277 273 267 262 258 255 253 253 252 250 248 247 248 247 246 245 244 243 242
306 306 306 306 305 304 304 303 302 301 300 299 299 297 296 294 294 293 292 291 289 287 285 284 281 277 272 268 262 258 255 252 251 251 249 246 246 247 246 244 243 243 242 242
306 306 306 306 305 305 304 304 303 303 302 301 300 299 297 295 294 293 292 290 289 288 286 285 282 278 273 267 263 258 255 252 250 249 248 246 246 245 244 244 243 243 243 243
307 306 306 305 305 305 305 305 305 304 303 303 302 301 300 297 295 294 293 291 290 288 287 285 282 278 273 268 263 260 256 253 252 250 249 246 245 244 243 243 243 243 243 244
307 307 306 306 305 305 305 306 306 305 305 304 303 302 301 299 298 296 293 292 290 289 288 287 284 280 276 271 265 261 257 254 251 249 248 246 244 242 242 242 242 243 244 243
307 307 306 306 305 305 305 306 306 306 306 306 305 303 302 301 299 297 294 292 290 289 287 286 284 282 279 274 269 263 258 254 251 249 247 245 243 241 240 241 241 242 242 242
309 308 308 307 307 307 306 307 307 307 307 306 305 304 303 301 299 297 295 294 291 288 286 284 283 281 280 278 274 267 260 256 255 251 247 244 242 241 241 241 240 240 240 240
312 311 310 309 309 308 307 307 307 307 307 307 306 305 303 301 298 297 296 294 292 289 286 284 282 281 280 278 275 270 262 258 255 252 249 246 243 241 241 241 241 239 239 239
313 313 312 311 311 310 309 308 308 308 309 308 307 306 304 302 300 297 296 294 291 289 287 286 283 280 279 277 274 270 265 261 257 254 250 246 244 241 240 240 241 240 240 239
314 314 314 313 313 312 311 309 309 309 310 309 308 307 305 303 302 300 297 295 293 289 286 285 283 281 278 275 274 271 267 263 258 254 250 247 242 239 238 238 238 239 238 239
315 315 315 315 315 314 312 311 311 311 311 310 309 307 306 305 304 301 299 297 294 290 287 284 281 279 278 276 274 271 268 264 260 256 251 247 243 240 239 239 239 239 239 239
316 316 316 316 316 315 314 313 312 312 312 311 310 308 307 306 304 303 301 298 295 292 289 285 282 279 276 274 273 271 267 263 258 255 251 247 244 242 241 241 241 241 241 242
316 316 316 316 316 316 316 315 315 314 313 312 310 308 307 305 304 303 302 300 298 295 292 288 284 279 276 274 272 269 266 262 257 253 251 248 245 245 243 242 242 242 243 243
315 316 316 316 316 316 316 316 316 315 314 313 312 309 307 306 304 303 302 301 300 298 295 290 286 282 278 274 271 268 265 261 257 254 252 249 248 247 246 244 244 244 244 243
315 316 316 316 316 316 316 316 316 315 314 314 313 311 309 307 306 305 304 303 302 301 298 293 288 284 281 277 273 268 264 261 258 255 253 252 250 249 248 246 245 245 245 245
313 314 315 315 315 315 315 314 315 315 315 314 313 311 310 309 307 305 304 303 303 302 300 297 293 289 285 281 275 269 265 261 259 256 254 253 252 250 248 246 245 245 245 245
312 313 314 315 315 314 314 314 313 313 314 314 313 312 311 309 308 306 304 302 301 301 300 298 295 290 287 283 279 274 268 262 259 257 255 253 251 249 247 246 245 245 245 244
312 312 313 313 314 314 313 313 312 312 312 312 312 311 310 308 307 306 304 302 300 299 298 296 294 290 286 283 280 275 270 265 262 259 255 252 250 249 247 246 245 244 244 244
Height
5603 5598 5593 5590 5586 5582 5578 5574 5571 5568 5564 5561 5557 5554 5552 5550 5547 5545 5543 5541 5539 5538 5537 5537 5536 5537 5537 5538 5539 5540 5542 5544 5547 5549 5551 5553 5556 5559 5561 5565 5568 5571 5575 5578
5595 5589 5584 5581 5577 5573 5569 5565 5561 5558 5555 5551 5547 5544 5542 5539 5537 5534 5532 5530 5528 5526 5525 5525 5525 5525 5525 5526 5527 5528 5530 5531 5534 5536 5538 5540 5543 5546 5549 5552 5555 5558 5562 5566
5585 5580 5576 5572 5569 5564 5560 5556 5552 5548 5546 5541 5538 5535 5532 5529 5526 5524 5521 5519 5517 5515 5514 5513 5512 5513 5513 5514 5514 5515 5517 5519 5521 5523 5525 5528 5530 5533 5536 5539 5542 5546 5550 5554
5575 5571 5567 5565 5559 5555 5551 5547 5543 5539 5535 5531 5528 5525 5522 5519 5516 5514 5511 5509 5507 5505 5503 5502 5501 5501 5501 5501 5502 5503 5505 5507 5508 5510 5513 5515 5517 5520 5523 5527 5530 5534 5537 5541
5566 5561 5557 5555 5550 5545 5541 5538 5534 5530 5526 5522 5519 5516 5513 5510 5507 5504 5501 5499 5497 5494 5493 5491 5490 5489 5489 5490 5490 5491 5493 5494 5496 5498 5501 5503 5506 5508 5511 5514 5518 5521 5525 5529
5557 5551 5548 5546 5541 5535 5532 5529 5525 5521 5517 5513 5510 5507 5505 5501 5498 5495 5492 5489 5486 5484 5482 5481 5479 5478 5478 5478 5479 5480 5481 5483 5485 5487 5489 5492 5494 5496 5499 5503 5506 5509 5513 5517
5548 5543 5539 5536 5531 5527 5525 5521 5516 5512 5508 5504 5500 5497 5495 5491 5488 5485 5482 5479 5476 5474 5472 5470 5469 5468 5467 5467 5467 5468 5470 5471 5473 5475 5478 5480 5483 5485 5488 5491 5495 5498 5501 5505
5540 5535 5534 5527 5522 5519 5515 5510 5506 5502 5499 5495 5491 5488 5484 5481 5478 5475 5472 5469 5467 5464 5462 5460 5458 5457 5456 5456 5456 5457 5459 5460 5462 5464 5466 5469 5472 5474 5477 5480 5483 5487 5490 5494
5533 5530 5524 5518 5514 5510 5505 5501 5497 5493 5490 5486 5482 5478 5475 5471 5468 5465 5462 5459 5457 5454 5452 5450 5448 5447 5446 5445 5445 5447 5448 5450 5451 5453 5455 5458 5460 5463 5466 5469 5472 5475 5479 5483
5524 5519 5514 5510 5505 5501 5496 5492 5488 5484 5480 5476 5473 5469 5465 5462 5458 5455 5452 5449 5447 5445 5443 5440 5438 5437 5436 5435 5435 5436 5438 5439 5441 5443 5445 5448 5450 5453 5455 5458 5461 5464 5468 5472
5515 5510 5505 5501 5496 5492 5488 5483 5479 5475 5471 5467 5463 5459 5456 5452 5449 5445 5442 5440 5437 5435 5433 5430 5428 5427 5426 5425 5425 5427 5428 5429 5431 5433 5435 5437 5440 5443 5445 5448 5451 5455 5458 5461
5506 5501 5497 5493 5488 5483 5479 5475 5471 5467 5462 5458 5454 5450 5446 5442 5439 5436 5433 5430 5427 5425 5423 5421 5419 5417 5416 5416 5416 5417 5418 5420 5421 5423 5425 5427 5430 5433 5435 5439 5441 5444 5447 5451
5497 5492 5488 5483 5479 5475 5470 5466 5462 5457 5453 5449 5445 5441 5437 5433 5430 5426 5423 5421 5418 5416 5414 5412 5410 5409 5407 5407 5407 5408 5409 5410 5412 5414 5415 5418 5421 5423 5427 5429 5432 5435 5438 5441
5488 5484 5479 5475 5471 5466 5462 5458 5453 5449 5444 5440 5436 5432 5428 5425 5421 5418 5415 5412 5410 5408 5406 5404 5402 5401 5399 5399 5398 5399 5400 5401 5402 5404 5406 5409 5411 5414 5417 5420 5423 5426 5428 5431
5480 5475 5471 5466 5462 5458 5453 5449 5445 5440 5436 5432 5427 5423 5420 5416 5413 5409 5406 5404 5402 5399 5398 5396 5394 5393 5392 5391 5390 5390 5391 5392 5393 5395 5397 5399 5402 5405 5407 5410 5413 5416 5419 5421
5472 5467 5462 5458 5454 5449 5445 5441 5437 5433 5428 5424 5420 5415 5412 5408 5405 5401 5399 5396 5394 5392 5390 5388 5387 5385 5384 5383 5382 5382 5383 5384 5385 5387 5388 5391 5393 5396 5398 5401 5404 5407 5409 5412
5464 5459 5455 5450 5446 5441 5437 5433 5429 5425 5420 5416 5412 5407 5404 5400 5397 5394 5391 5388 5386 5384 5382 5381 5379 5378 5377 5376 5375 5375 5375 5376 5377 5378 5380 5382 5384 5387 5389 5392 5395 5398 5400 5403
5456 5452 5447 5443 5438 5434 5429 5425 5421 5417 5413 5408 5404 5400 5396 5392 5389 5386 5383 5381 5378 5376 5374 5373 5372 5371 5370 5369 5368 5368 5368 5369 5369 5370 5372 5374 5376 5378 5381 5384 5386 5389 5392 5394
5449 5444 5440 5435 5431 5426 5422 5417 5413 5409 5405 5400 5396 5392 5388 5384 5381 5378 5376 5373 5371 5369 5367 5366 5364 5364 5363 5362 5362 5361 5361 5361 5362 5363 5364 5366 5367 5370 5372 5375 5378 5381 5383 5386
5441 5437 5432 5427 5423 5419 5414 5410 5406 5401 5397 5393 5389 5385 5381 5377 5374 5371 5368 5366 5363 5362 5360 5359 5358 5357 5356 5355 5355 5355 5354 5355 5355 5356 5357 5358 5360 5362 5365 5368 5370 5373 5375 5378
5434 5430 5425 5420 5416 5411 5407 5402 5398 5394 5389 5385 5381 5378 5374 5370 5367 5364 5362 5359 5357 5355 5353 5352 5351 5350 5349 5348 5348 5348 5348 5348 5348 5349 5350 5351 5353 5355 5357 5360 5362 5365 5367 5370
5427 5422 5418 5413 5409 5404 5400 5395 5391 5387 5382 5378 5374 5370 5367 5364 5361 5358 5355 5353 5351 5348 5346 5345 5344 5343 5342 5341 5341 5341 5341 5341 5341 5342 5343 5345 5346 5348 5350 5352 5354 5357 5359 5361
5420 5415 5411 5407 5402 5397 5393 5388 5384 5380 5375 5371 5367 5364 5360 5357 5354 5352 5349 5347 5344 5342 5340 5338 5337 5336 5335 5334 5334 5334 5334 5334 5335 5335 5336 5338 5339 5341 5342 5344 5346 5348 5350 5352
5412 5408 5404 5399 5395 5390 5386 5381 5377 5373 5369 5365 5361 5357 5354 5351 5348 5345 5343 5340 5338 5336 5333 5332 5330 5329 5328 5327 5327 5327 5327 5327 5328 5328 5329 5330 5332 5333 5334 5336 5338 5339 5341 5343
5405 5401 5396 5392 5388 5383 5379 5374 5370 5366 5362 5358 5355 5351 5348 5345 5342 5339 5337 5334 5332 5330 5328 5326 5324 5322 5321 5320 5320 5320 5320 5320 5320 5321 5322 5323 5324 5325 5327 5328 5330 5331 5333 5335
5397 5393 5389 5384 5380 5376 5371 5367 5363 5360 5356 5352 5349 5345 5342 5339 5336 5333 5331 5328 5326 5324 5322 5320 5318 5317 5316 5315 5314 5313 5313 5313 5314 5314 5315 5316 5317 5318 5319 5321 5322 5324 5325 5327
5389 5385 5381 5377 5372 5368 5364 5360 5357 5353 5349 5346 5343 5339 5336 5333 5330 5327 5325 5322 5320 5318 5316 5314 5313 5311 5310 5309 5308 5307 5307 5307 5308 5308 5309 5310 5310 5311 5312 5314 5315 5316 5318 5319